KB8VUC Weather Reports


time (UTC)temp
C
wind
direction
speed
KPH
gust
KPH
rain 1hr
cm
rain 24hr
cm
rain mn
cm
humidity
%
barometer
mb
20260502123021 3 316 4.8 14.5 0.00 0.00 0.00 80 1015.3
20260502121515 2 349 6.4 14.5 0.00 0.00 0.00 82 1015.2
20260502114515 1 294 0.0 0.0 0.00 0.00 0.00 81 1015.0
20260502113016 1 294 0.0 0.0 0.00 0.00 0.00 89 1014.9
20260502111601 0 294 0.0 0.0 0.00 0.00 0.00 89 1014.8
20260502110057 -1 294 0.0 0.0 0.00 0.00 0.00 87 1014.8
20260502104555 0 294 0.0 0.0 0.00 0.00 0.00 87 1014.8
20260502103053 0 294 0.0 3.2 0.00 0.00 0.00 87 1014.8
20260502101554 0 294 0.0 1.6 0.00 0.00 0.00 85 1014.7
20260502100104 0 290 0.0 1.6 0.00 0.00 0.00 82 1014.6
20260502070009 1 285 3.2 4.8 0.00 0.00 0.00 78 1014.1
20260502064512 1 285 1.6 3.2 0.00 0.00 0.00 77 1014.1
20260502063007 1 277 0.0 3.2 0.00 0.00 0.00 77 1014.2
20260502061506 1 277 1.6 4.8 0.00 0.00 0.00 75 1014.3
20260502060004 1 284 1.6 4.8 0.00 0.00 0.00 74 1014.4
20260502054505 1 294 3.2 4.8 0.00 0.00 0.00 72 1014.3
20260502053101 1 298 1.6 4.8 0.00 0.00 0.00 71 1014.3
20260502053001 -17 298 1.6 4.8 0.00 0.00 0.00 71 1014.3
20260502051702 1 315 0.0 3.2 0.00 0.00 0.00 72 1014.3
20260502050046 2 302 1.6 4.8 0.00 0.00 0.00 69 1014.3
20260502044544 2 309 3.2 9.7 0.00 0.00 0.00 68 1014.2
20260502043044 2 304 3.2 9.7 0.00 0.00 0.00 67 1014.1
20260502041540 2 288 3.2 9.7 0.00 0.00 0.00 67 1014.0
20260502040035 2 290 3.2 8.0 0.00 0.00 0.00 65 1014.0
20260502034541 2 287 4.8 12.9 0.00 0.00 0.00 64 1013.9
20260502033030 2 310 3.2 11.3 0.00 0.00 0.00 62 1013.8
20260502031521 2 308 4.8 11.3 0.00 0.00 0.00 60 1013.7
20260502030006 2 323 6.4 9.7 0.00 0.00 0.00 58 1013.7
20260502024501 3 321 6.4 12.9 0.00 0.00 0.00 57 1013.6
20260502023101 3 298 8.0 17.7 0.00 0.00 0.00 55 1013.6
20260502021558 3 297 8.0 16.1 0.00 0.00 0.00 54 1013.5
20260502020107 3 306 11.3 20.9 0.00 0.00 0.00 54 1013.2
20260502014552 3 332 11.3 22.5 0.00 0.00 0.00 54 1012.9
20260502013054 3 318 9.7 24.1 0.00 0.00 0.00 54 1012.9
20260502011553 4 285 8.0 20.9 0.00 0.00 0.00 53 1012.8
20260502010036 4 306 9.7 24.1 0.00 0.00 0.00 53 1012.8
20260502004534 5 295 9.7 24.1 0.00 0.00 0.00 52 1012.8
20260502003033 5 257 11.3 19.3 0.00 0.00 0.00 52 1012.5
20260502001528 5 273 6.4 16.1 0.00 0.00 0.00 53 1012.4
20260502000027 5 263 6.4 17.7 0.00 0.00 0.00 53 1012.3
20260501234527 5 235 14.5 25.7 0.00 0.00 0.00 50 1012.2
20260501233023 6 273 17.7 27.4 0.00 0.00 0.00 47 1012.0
20260501231534 7 298 12.9 27.4 0.00 0.00 0.00 46 1011.9
20260501230007 7 275 11.3 19.3 0.00 0.00 0.00 45 1012.0
20260501224505 -17 300 11.3 20.9 0.00 0.00 0.00 49 1011.9
20260501223002 6 290 9.7 17.7 0.00 0.00 0.00 52 1012.0
20260501221501 6 299 9.7 17.7 0.00 0.00 0.00 57 1011.8
20260501220059 6 320 3.2 11.3 0.00 0.00 0.00 59 1011.8
20260501214607 6 331 4.8 11.3 0.00 0.00 0.00 59 1011.9
20260501213102 6 317 8.0 14.5 0.00 0.00 0.00 57 1011.8
20260501211556 6 321 6.4 16.1 0.00 0.00 0.00 59 1011.6
20260501210054 6 299 9.7 16.1 0.00 0.00 0.00 1011.6
20260501204554 5 323 8.0 16.1 0.00 0.00 0.00 60 1011.6
20260501203041 5 285 8.0 14.5 0.00 0.00 0.00 62 1011.7
20260501201546 6 298 6.4 12.9 0.00 0.00 0.00 61 1011.6
20260501200039 6 283 9.7 16.1 0.00 0.00 0.00 60 1011.5
20260501194546 6 281 9.7 16.1 0.00 0.00 0.00 57 1011.4
20260501193035 6 283 4.8 14.5 0.00 0.00 0.00 57 1011.4
20260501191535 6 309 6.4 16.1 0.00 0.00 0.00 56 1011.3
20260501190033 7 273 9.7 17.7 0.00 0.00 0.00 54 1011.2
20260501184532 7 290 11.3 20.9 0.00 0.00 0.00 54 1011.0
20260501183023 7 298 6.4 16.1 0.00 0.00 0.00 53 1010.9
20260501181521 8 296 4.8 17.7 0.00 0.00 0.00 50 1010.9
20260501180025 8 286 9.7 17.7 0.00 0.00 0.00 51 1010.9
20260501174517 7 301 11.3 20.9 0.00 0.00 0.00 52 1011.0
20260501173016 7 279 3.2 17.7 0.00 0.00 0.00 54 1011.0
20260501171525 8 265 1.6 8.0 0.00 0.00 0.00 52 1011.1
20260501170015 8 282 3.2 14.5 0.00 0.00 0.00 54 1011.1
20260501164510 6 270 8.0 16.1 0.00 0.00 0.00 59 1011.1
20260501163053 6 318 8.0 17.7 0.00 0.00 0.00 60 1011.2
20260501161552 5 288 6.4 16.1 0.00 0.00 0.00 61 1011.2
20260501160048 6 244 4.8 16.1 0.00 0.00 0.00 1011.3
20260501154537 5 316 9.7 20.9 0.00 0.00 0.00 60 1011.3
20260501153013 6 288 6.4 11.3 0.00 0.00 0.00 58 1011.1
20260501151512 5 317 3.2 14.5 0.00 0.00 0.00 63 1011.1
20260501144609 5 5 6.4 16.1 0.00 0.00 0.00 66 1011.0
20260501143058 5 360 8.0 14.5 0.00 0.00 0.00 64 1010.9
20260501141610 5 347 6.4 16.1 0.00 0.00 0.00 65 1010.8